Year,Month,Day,Hour,Minute,Value (Times are PST for temperature in C)
2015,06,23,00,00,16.30
2015,06,23,00,01,16.40
2015,06,23,00,02,16.50
2015,06,23,00,03,16.70
2015,06,23,00,04,16.80
2015,06,23,00,05,16.80
2015,06,23,00,06,16.90
2015,06,23,00,07,16.90
2015,06,23,00,08,16.90
2015,06,23,00,09,16.90
2015,06,23,00,10,16.90
2015,06,23,00,11,16.80
2015,06,23,00,12,16.70
2015,06,23,00,13,16.60
2015,06,23,00,14,16.60
2015,06,23,00,15,16.50
2015,06,23,00,16,16.40
2015,06,23,00,17,16.40
2015,06,23,00,18,16.30
2015,06,23,00,19,16.30
2015,06,23,00,20,16.20
2015,06,23,00,21,16.20
2015,06,23,00,22,16.20
2015,06,23,00,23,16.10
2015,06,23,00,24,16.10
2015,06,23,00,25,16.10
2015,06,23,00,26,16.10
2015,06,23,00,27,16.10
2015,06,23,00,28,16.10
2015,06,23,00,29,16.10
2015,06,23,00,30,16.00
2015,06,23,00,31,16.00
2015,06,23,00,32,16.00
2015,06,23,00,33,16.00
2015,06,23,00,34,15.90
2015,06,23,00,35,15.90
2015,06,23,00,36,15.90
2015,06,23,00,37,15.90
2015,06,23,00,38,15.90
2015,06,23,00,39,15.90
2015,06,23,00,40,15.90
2015,06,23,00,41,15.90
2015,06,23,00,42,15.90
2015,06,23,00,43,15.90
2015,06,23,00,44,15.90
2015,06,23,00,45,15.90
2015,06,23,00,46,16.00
2015,06,23,00,47,16.00
2015,06,23,00,48,16.00
2015,06,23,00,49,16.10
2015,06,23,00,50,16.10
2015,06,23,00,51,16.10
2015,06,23,00,52,16.10
2015,06,23,00,53,16.10
2015,06,23,00,54,16.10
2015,06,23,00,55,16.00
2015,06,23,00,56,15.90
2015,06,23,00,57,15.90
2015,06,23,00,58,15.80
2015,06,23,00,59,15.80
2015,06,23,01,00,15.70
2015,06,23,01,01,15.70
2015,06,23,01,02,15.60
2015,06,23,01,03,15.60
2015,06,23,01,04,15.50
2015,06,23,01,05,15.40
2015,06,23,01,06,15.40
2015,06,23,01,07,15.30
2015,06,23,01,08,15.30
2015,06,23,01,09,15.30
2015,06,23,01,10,15.30
2015,06,23,01,11,15.20
2015,06,23,01,12,15.20
2015,06,23,01,13,15.20
2015,06,23,01,14,15.20
2015,06,23,01,15,15.20
2015,06,23,01,16,15.10
2015,06,23,01,17,15.10
2015,06,23,01,18,15.10
2015,06,23,01,19,15.10
2015,06,23,01,20,15.10
2015,06,23,01,21,15.10
2015,06,23,01,22,15.10
2015,06,23,01,23,15.10
2015,06,23,01,24,15.10
2015,06,23,01,25,15.20
2015,06,23,01,26,15.20
2015,06,23,01,27,15.20
2015,06,23,01,28,15.20
2015,06,23,01,29,15.20
2015,06,23,01,30,15.20
2015,06,23,01,31,15.20
2015,06,23,01,32,15.20
2015,06,23,01,33,15.20
2015,06,23,01,34,15.20
2015,06,23,01,35,15.30
2015,06,23,01,36,15.30
2015,06,23,01,37,15.30
2015,06,23,01,38,15.30
2015,06,23,01,39,15.30
2015,06,23,01,40,15.20
2015,06,23,01,41,15.20
2015,06,23,01,42,15.20
2015,06,23,01,43,15.20
2015,06,23,01,44,15.20
2015,06,23,01,45,15.20
2015,06,23,01,46,15.20
2015,06,23,01,47,15.20
2015,06,23,01,48,15.20
2015,06,23,01,49,15.20
2015,06,23,01,50,15.30
2015,06,23,01,51,15.30
2015,06,23,01,52,15.30
2015,06,23,01,53,15.30
2015,06,23,01,54,15.30
2015,06,23,01,55,15.30
2015,06,23,01,56,15.20
2015,06,23,01,57,15.20
2015,06,23,01,58,15.10
2015,06,23,01,59,15.10
2015,06,23,02,00,15.00
2015,06,23,02,01,14.90
2015,06,23,02,02,14.80
2015,06,23,02,03,14.70
2015,06,23,02,04,14.60
2015,06,23,02,05,14.60
2015,06,23,02,06,14.50
2015,06,23,02,07,14.40
2015,06,23,02,08,14.30
2015,06,23,02,09,14.30
2015,06,23,02,10,14.20
2015,06,23,02,11,14.20
2015,06,23,02,12,14.10
2015,06,23,02,13,14.00
2015,06,23,02,14,14.00
2015,06,23,02,15,14.00
2015,06,23,02,16,13.90
2015,06,23,02,17,13.90
2015,06,23,02,18,13.80
2015,06,23,02,19,13.80
2015,06,23,02,20,13.80
2015,06,23,02,21,13.70
2015,06,23,02,22,13.70
2015,06,23,02,23,13.70
2015,06,23,02,24,13.60
2015,06,23,02,25,13.60
2015,06,23,02,26,13.60
2015,06,23,02,27,13.50
2015,06,23,02,28,13.50
2015,06,23,02,29,13.40
2015,06,23,02,30,13.40
2015,06,23,02,31,13.40
2015,06,23,02,32,13.30
2015,06,23,02,33,13.30
2015,06,23,02,34,13.30
2015,06,23,02,35,13.30
2015,06,23,02,36,13.30
2015,06,23,02,37,13.20
2015,06,23,02,38,13.20
2015,06,23,02,39,13.20
2015,06,23,02,40,13.20
2015,06,23,02,41,13.20
2015,06,23,02,42,13.20
2015,06,23,02,43,13.20
2015,06,23,02,44,13.20
2015,06,23,02,45,13.20
2015,06,23,02,46,13.20
2015,06,23,02,47,13.20
2015,06,23,02,48,13.10
2015,06,23,02,49,13.10
2015,06,23,02,50,13.10
2015,06,23,02,51,13.10
2015,06,23,02,52,13.10
2015,06,23,02,53,13.10
2015,06,23,02,54,13.10
2015,06,23,02,55,13.10
2015,06,23,02,56,13.10
2015,06,23,02,57,13.10
2015,06,23,02,58,13.10
2015,06,23,02,59,13.10
2015,06,23,03,00,13.10
2015,06,23,03,01,13.10
2015,06,23,03,02,13.20
2015,06,23,03,03,13.20
2015,06,23,03,04,13.20
2015,06,23,03,05,13.20
2015,06,23,03,06,13.20
2015,06,23,03,07,13.20
2015,06,23,03,08,13.20
2015,06,23,03,09,13.20
2015,06,23,03,10,13.20
2015,06,23,03,11,13.20
2015,06,23,03,12,13.20
2015,06,23,03,13,13.20
2015,06,23,03,14,13.20
2015,06,23,03,15,13.20
2015,06,23,03,16,13.10
2015,06,23,03,17,13.10
2015,06,23,03,18,13.10
2015,06,23,03,19,13.10
2015,06,23,03,20,13.10
2015,06,23,03,21,13.00
2015,06,23,03,22,13.00
2015,06,23,03,23,13.00
2015,06,23,03,24,12.90
2015,06,23,03,25,12.90
2015,06,23,03,26,12.90
2015,06,23,03,27,12.90
2015,06,23,03,28,12.90
2015,06,23,03,29,12.90
2015,06,23,03,30,12.80
2015,06,23,03,31,12.80
2015,06,23,03,32,12.80
2015,06,23,03,33,12.80
2015,06,23,03,34,12.80
2015,06,23,03,35,12.80
2015,06,23,03,36,12.80
2015,06,23,03,37,12.70
2015,06,23,03,38,12.70
2015,06,23,03,39,12.70
2015,06,23,03,40,12.60
2015,06,23,03,41,12.60
2015,06,23,03,42,12.60
2015,06,23,03,43,12.60
2015,06,23,03,44,12.50
2015,06,23,03,45,12.50
2015,06,23,03,46,12.50
2015,06,23,03,47,12.50
2015,06,23,03,48,12.50
2015,06,23,03,49,12.50
2015,06,23,03,50,12.50
2015,06,23,03,51,12.50
2015,06,23,03,52,12.50
2015,06,23,03,53,12.50
2015,06,23,03,54,12.40
2015,06,23,03,55,12.40
2015,06,23,03,56,12.40
2015,06,23,03,57,12.30
2015,06,23,03,58,12.30
2015,06,23,03,59,12.20
2015,06,23,04,00,12.20
2015,06,23,04,01,12.20
2015,06,23,04,02,12.10
2015,06,23,04,03,12.10
2015,06,23,04,04,12.10
2015,06,23,04,05,12.10
2015,06,23,04,06,12.10
2015,06,23,04,07,12.10
2015,06,23,04,08,12.10
2015,06,23,04,09,12.10
2015,06,23,04,10,12.10
2015,06,23,04,11,12.10
2015,06,23,04,12,12.00
2015,06,23,04,13,12.00
2015,06,23,04,14,12.00
2015,06,23,04,15,12.00
2015,06,23,04,16,12.00
2015,06,23,04,17,11.90
2015,06,23,04,18,11.90
2015,06,23,04,19,11.90
2015,06,23,04,20,11.80
2015,06,23,04,21,11.80
2015,06,23,04,22,11.80
2015,06,23,04,23,11.70
2015,06,23,04,24,11.70
2015,06,23,04,25,11.70
2015,06,23,04,26,11.70
2015,06,23,04,27,11.70
2015,06,23,04,28,11.70
2015,06,23,04,29,11.60
2015,06,23,04,30,11.60
2015,06,23,04,31,11.60
2015,06,23,04,32,11.50
2015,06,23,04,33,11.50
2015,06,23,04,34,11.40
2015,06,23,04,35,11.40
2015,06,23,04,36,11.30
2015,06,23,04,37,11.30
2015,06,23,04,38,11.30
2015,06,23,04,39,11.20
2015,06,23,04,40,11.20
2015,06,23,04,41,11.20
2015,06,23,04,42,11.20
2015,06,23,04,43,11.10
2015,06,23,04,44,11.10
2015,06,23,04,45,11.10
2015,06,23,04,46,11.10
2015,06,23,04,47,11.10
2015,06,23,04,48,11.10
2015,06,23,04,49,11.00
2015,06,23,04,50,11.00
2015,06,23,04,51,11.00
2015,06,23,04,52,11.00
2015,06,23,04,53,11.00
2015,06,23,04,54,10.90
2015,06,23,04,55,10.90
2015,06,23,04,56,10.90
2015,06,23,04,57,10.90
2015,06,23,04,58,10.90
2015,06,23,04,59,10.90
2015,06,23,05,00,10.90
2015,06,23,05,01,10.90
2015,06,23,05,02,10.90
2015,06,23,05,03,10.90
2015,06,23,05,04,11.00
2015,06,23,05,05,11.00
2015,06,23,05,06,11.00
2015,06,23,05,07,11.00
2015,06,23,05,08,11.00
2015,06,23,05,09,11.00
2015,06,23,05,10,10.90
2015,06,23,05,11,10.90
2015,06,23,05,12,10.90
2015,06,23,05,13,10.90
2015,06,23,05,14,10.90
2015,06,23,05,15,10.80
2015,06,23,05,16,10.80
2015,06,23,05,17,10.80
2015,06,23,05,18,10.80
2015,06,23,05,19,10.70
2015,06,23,05,20,10.70
2015,06,23,05,21,10.70
2015,06,23,05,22,10.60
2015,06,23,05,23,10.60
2015,06,23,05,24,10.60
2015,06,23,05,25,10.60
2015,06,23,05,26,10.50
2015,06,23,05,27,10.50
2015,06,23,05,28,10.40
2015,06,23,05,29,10.40
2015,06,23,05,30,10.40
2015,06,23,05,31,10.40
2015,06,23,05,32,10.40
2015,06,23,05,33,10.30
2015,06,23,05,34,10.30
2015,06,23,05,35,10.30
2015,06,23,05,36,10.30
2015,06,23,05,37,10.30
2015,06,23,05,38,10.30
2015,06,23,05,39,10.30
2015,06,23,05,40,10.30
2015,06,23,05,41,10.30
2015,06,23,05,42,10.30
2015,06,23,05,43,10.30
2015,06,23,05,44,10.20
2015,06,23,05,45,10.20
2015,06,23,05,46,10.20
2015,06,23,05,47,10.20
2015,06,23,05,48,10.20
2015,06,23,05,49,10.20
2015,06,23,05,50,10.10
2015,06,23,05,51,10.10
2015,06,23,05,52,10.10
2015,06,23,05,53,10.00
2015,06,23,05,54,10.00
2015,06,23,05,55,9.90
2015,06,23,05,56,9.90
2015,06,23,05,57,9.80
2015,06,23,05,58,9.70
2015,06,23,05,59,9.60
2015,06,23,06,00,9.50
2015,06,23,06,01,9.40
2015,06,23,06,02,9.40
2015,06,23,06,03,9.40
2015,06,23,06,04,9.30
2015,06,23,06,05,9.30
2015,06,23,06,06,9.30
2015,06,23,06,07,9.30
2015,06,23,06,08,9.30
2015,06,23,06,09,9.30
2015,06,23,06,10,9.30
2015,06,23,06,11,9.20
2015,06,23,06,12,9.20
2015,06,23,06,13,9.20
2015,06,23,06,14,9.20
2015,06,23,06,15,9.20
2015,06,23,06,16,9.20
2015,06,23,06,17,9.20
2015,06,23,06,18,9.20
2015,06,23,06,19,9.20
2015,06,23,06,20,9.20
2015,06,23,06,21,9.20
2015,06,23,06,22,9.20
2015,06,23,06,23,9.30
2015,06,23,06,24,9.30
2015,06,23,06,25,9.30
2015,06,23,06,26,9.30
2015,06,23,06,27,9.40
2015,06,23,06,28,9.40
2015,06,23,06,29,9.40
2015,06,23,06,30,9.50
2015,06,23,06,31,9.50
2015,06,23,06,32,9.60
2015,06,23,06,33,9.60
2015,06,23,06,34,9.70
2015,06,23,06,35,9.70
2015,06,23,06,36,9.80
2015,06,23,06,37,9.80
2015,06,23,06,38,9.90
2015,06,23,06,39,9.90
2015,06,23,06,40,10.00
2015,06,23,06,41,10.00
2015,06,23,06,42,10.10
2015,06,23,06,43,10.10
2015,06,23,06,44,10.20
2015,06,23,06,45,10.20
2015,06,23,06,46,10.30
2015,06,23,06,47,10.30
2015,06,23,06,48,10.40
2015,06,23,06,49,10.40
2015,06,23,06,50,10.50
2015,06,23,06,51,10.60
2015,06,23,06,52,10.70
2015,06,23,06,53,10.70
2015,06,23,06,54,10.80
2015,06,23,06,55,10.90
2015,06,23,06,56,10.90
2015,06,23,06,57,11.00
2015,06,23,06,58,11.10
2015,06,23,06,59,11.20
2015,06,23,07,00,11.20
2015,06,23,07,01,11.30
2015,06,23,07,02,11.40
2015,06,23,07,03,11.50
2015,06,23,07,04,11.60
2015,06,23,07,05,11.60
2015,06,23,07,06,11.70
2015,06,23,07,07,11.80
2015,06,23,07,08,11.90
2015,06,23,07,09,11.90
2015,06,23,07,10,12.00
2015,06,23,07,11,12.10
2015,06,23,07,12,12.10
2015,06,23,07,13,12.20
2015,06,23,07,14,12.20
2015,06,23,07,15,12.30
2015,06,23,07,16,12.40
2015,06,23,07,17,12.40
2015,06,23,07,18,12.50
2015,06,23,07,19,12.60
2015,06,23,07,20,12.70
2015,06,23,07,21,12.70
2015,06,23,07,22,12.80
2015,06,23,07,23,12.80
2015,06,23,07,24,12.90
2015,06,23,07,25,12.90
2015,06,23,07,26,12.90
2015,06,23,07,27,13.00
2015,06,23,07,28,13.10
2015,06,23,07,29,13.10
2015,06,23,07,30,13.20
2015,06,23,07,31,13.20
2015,06,23,07,32,13.20
2015,06,23,07,33,13.30
2015,06,23,07,34,13.30
2015,06,23,07,35,13.30
2015,06,23,07,36,13.40
2015,06,23,07,37,13.40
2015,06,23,07,38,13.50
2015,06,23,07,39,13.50
2015,06,23,07,40,13.60
2015,06,23,07,41,13.70
2015,06,23,07,42,13.70
2015,06,23,07,43,13.80
2015,06,23,07,44,13.90
2015,06,23,07,45,14.00
2015,06,23,07,46,14.10
2015,06,23,07,47,14.20
2015,06,23,07,48,14.30
2015,06,23,07,49,14.40
2015,06,23,07,50,14.40
2015,06,23,07,51,14.50
2015,06,23,07,52,14.50
2015,06,23,07,53,14.60
2015,06,23,07,54,14.60
2015,06,23,07,55,14.60
2015,06,23,07,56,14.70
2015,06,23,07,57,14.70
2015,06,23,07,58,14.80
2015,06,23,07,59,14.90
2015,06,23,08,00,14.90
2015,06,23,08,01,15.00
2015,06,23,08,02,15.00
2015,06,23,08,03,15.10
2015,06,23,08,04,15.20
2015,06,23,08,05,15.30
2015,06,23,08,06,15.40
2015,06,23,08,07,15.50
2015,06,23,08,08,15.60
2015,06,23,08,09,15.60
2015,06,23,08,10,15.60
2015,06,23,08,11,15.60
2015,06,23,08,12,15.50
2015,06,23,08,13,15.50
2015,06,23,08,14,15.40
2015,06,23,08,15,15.40
2015,06,23,08,16,15.40
2015,06,23,08,17,15.50
2015,06,23,08,18,15.50
2015,06,23,08,19,15.60
2015,06,23,08,20,15.70
2015,06,23,08,21,15.70
2015,06,23,08,22,15.70
2015,06,23,08,23,15.70
2015,06,23,08,24,15.80
2015,06,23,08,25,15.80
2015,06,23,08,26,15.80
2015,06,23,08,27,15.90
2015,06,23,08,28,16.00
2015,06,23,08,29,16.10
2015,06,23,08,30,16.10
2015,06,23,08,31,16.20
2015,06,23,08,32,16.30
2015,06,23,08,33,16.30
2015,06,23,08,34,16.30
2015,06,23,08,35,16.30
2015,06,23,08,36,16.30
2015,06,23,08,37,16.40
2015,06,23,08,38,16.40
2015,06,23,08,39,16.40
2015,06,23,08,40,16.40
2015,06,23,08,41,16.50
2015,06,23,08,42,16.50
2015,06,23,08,43,16.60
2015,06,23,08,44,16.60
2015,06,23,08,45,16.60
2015,06,23,08,46,16.70
2015,06,23,08,47,16.70
2015,06,23,08,48,16.80
2015,06,23,08,49,16.90
2015,06,23,08,50,17.00
2015,06,23,08,51,17.00
2015,06,23,08,52,17.10
2015,06,23,08,53,17.10
2015,06,23,08,54,17.20
2015,06,23,08,55,17.20
2015,06,23,08,56,17.20
2015,06,23,08,57,17.30
2015,06,23,08,58,17.30
2015,06,23,08,59,17.30
2015,06,23,09,00,17.20
2015,06,23,09,01,17.20
2015,06,23,09,02,17.10
2015,06,23,09,03,17.10
2015,06,23,09,04,17.10
2015,06,23,09,05,17.10
2015,06,23,09,06,17.20
2015,06,23,09,07,17.20
2015,06,23,09,08,17.20
2015,06,23,09,09,17.30
2015,06,23,09,10,17.30
2015,06,23,09,11,17.30
2015,06,23,09,12,17.30
2015,06,23,09,13,17.40
2015,06,23,09,14,17.40
2015,06,23,09,15,17.50
2015,06,23,09,16,17.60
2015,06,23,09,17,17.60
2015,06,23,09,18,17.80
2015,06,23,09,19,17.80
2015,06,23,09,20,17.80
2015,06,23,09,21,17.70
2015,06,23,09,22,17.70
2015,06,23,09,23,17.70
2015,06,23,09,24,17.70
2015,06,23,09,25,17.70
2015,06,23,09,26,17.70
2015,06,23,09,27,17.70
2015,06,23,09,28,17.70
2015,06,23,09,29,17.80
2015,06,23,09,30,17.80
2015,06,23,09,31,17.70
2015,06,23,09,32,17.70
2015,06,23,09,33,17.60
2015,06,23,09,34,17.50
2015,06,23,09,35,17.40
2015,06,23,09,36,17.40
2015,06,23,09,37,17.50
2015,06,23,09,38,17.50
2015,06,23,09,39,17.60
2015,06,23,09,40,17.60
2015,06,23,09,41,17.60
2015,06,23,09,42,17.60
2015,06,23,09,43,17.70
2015,06,23,09,44,17.70
2015,06,23,09,45,17.70
2015,06,23,09,46,17.70
2015,06,23,09,47,17.70
2015,06,23,09,48,17.70
2015,06,23,09,49,17.70
2015,06,23,09,50,17.70
2015,06,23,09,51,17.80
2015,06,23,09,52,17.80
2015,06,23,09,53,17.80
2015,06,23,09,54,17.90
2015,06,23,09,55,17.90
2015,06,23,09,56,17.80
2015,06,23,09,57,17.80
2015,06,23,09,58,17.80
2015,06,23,09,59,17.80
2015,06,23,10,00,17.80
2015,06,23,10,01,17.80
2015,06,23,10,02,17.80
2015,06,23,10,03,17.80
2015,06,23,10,04,17.80
2015,06,23,10,05,17.80
2015,06,23,10,06,17.90
2015,06,23,10,07,17.90
2015,06,23,10,08,17.90
2015,06,23,10,09,17.90
2015,06,23,10,10,17.80
2015,06,23,10,11,17.80
2015,06,23,10,12,17.90
2015,06,23,10,13,18.00
2015,06,23,10,14,18.10
2015,06,23,10,15,18.10
2015,06,23,10,16,18.10
2015,06,23,10,17,18.20
2015,06,23,10,18,18.20
2015,06,23,10,19,18.20
2015,06,23,10,20,18.30
2015,06,23,10,21,18.30
2015,06,23,10,22,18.20
2015,06,23,10,23,18.20
2015,06,23,10,24,18.20
2015,06,23,10,25,18.10
2015,06,23,10,26,18.10
2015,06,23,10,27,18.00
2015,06,23,10,28,18.00
2015,06,23,10,29,18.10
2015,06,23,10,30,18.10
2015,06,23,10,31,18.10
2015,06,23,10,32,18.10
2015,06,23,10,33,18.00
2015,06,23,10,34,18.00
2015,06,23,10,35,18.10
2015,06,23,10,36,18.20
2015,06,23,10,37,18.20
2015,06,23,10,38,18.30
2015,06,23,10,39,18.30
2015,06,23,10,40,18.30
2015,06,23,10,41,18.20
2015,06,23,10,42,18.20
2015,06,23,10,43,18.30
2015,06,23,10,44,18.30
2015,06,23,10,45,18.20
2015,06,23,10,46,18.20
2015,06,23,10,47,18.20
2015,06,23,10,48,18.20
2015,06,23,10,49,18.20
2015,06,23,10,50,18.20
2015,06,23,10,51,18.20
2015,06,23,10,52,18.30
2015,06,23,10,53,18.30
2015,06,23,10,54,18.40
2015,06,23,10,55,18.60
2015,06,23,10,56,18.70
2015,06,23,10,57,18.70
2015,06,23,10,58,18.70
2015,06,23,10,59,18.70
2015,06,23,11,00,18.70
2015,06,23,11,01,18.60
2015,06,23,11,02,18.50
2015,06,23,11,03,18.50
2015,06,23,11,04,18.50
2015,06,23,11,05,18.50
2015,06,23,11,06,18.50
2015,06,23,11,07,18.50
2015,06,23,11,08,18.50
2015,06,23,11,09,18.50
2015,06,23,11,10,18.40
2015,06,23,11,11,18.50
2015,06,23,11,12,18.50
2015,06,23,11,13,18.50
2015,06,23,11,14,18.50
2015,06,23,11,15,18.50
2015,06,23,11,16,18.60
2015,06,23,11,17,18.60
2015,06,23,11,18,18.60
2015,06,23,11,19,18.60
2015,06,23,11,20,18.60
2015,06,23,11,21,18.60
2015,06,23,11,22,18.60
2015,06,23,11,23,18.60
2015,06,23,11,24,18.70
2015,06,23,11,25,18.70
2015,06,23,11,26,18.80
2015,06,23,11,27,18.70
2015,06,23,11,28,18.70
2015,06,23,11,29,18.70
2015,06,23,11,30,18.80
2015,06,23,11,31,18.90
2015,06,23,11,32,19.00
2015,06,23,11,33,19.00
2015,06,23,11,34,19.00
2015,06,23,11,35,18.90
2015,06,23,11,36,18.90
2015,06,23,11,37,18.90
2015,06,23,11,38,19.00
2015,06,23,11,39,19.00
2015,06,23,11,40,18.90
2015,06,23,11,41,18.90
2015,06,23,11,42,18.90
2015,06,23,11,43,19.10
2015,06,23,11,44,19.30
2015,06,23,11,45,19.30
2015,06,23,11,46,19.20
2015,06,23,11,47,19.20
2015,06,23,11,48,19.10
2015,06,23,11,49,19.10
2015,06,23,11,50,19.10
2015,06,23,11,51,19.10
2015,06,23,11,52,19.20
2015,06,23,11,53,19.20
2015,06,23,11,54,19.20
2015,06,23,11,55,19.20
2015,06,23,11,56,19.20
2015,06,23,11,57,19.20
2015,06,23,11,58,19.30
2015,06,23,11,59,19.40
2015,06,23,12,00,19.40
2015,06,23,12,01,19.50
2015,06,23,12,02,19.60
2015,06,23,12,03,19.70
2015,06,23,12,04,19.60
2015,06,23,12,05,19.50
2015,06,23,12,06,19.40
2015,06,23,12,07,19.30
2015,06,23,12,08,19.30
2015,06,23,12,09,19.30
2015,06,23,12,10,19.30
2015,06,23,12,11,19.40
2015,06,23,12,12,19.40
2015,06,23,12,13,19.40
2015,06,23,12,14,19.40
2015,06,23,12,15,19.50
2015,06,23,12,16,19.50
2015,06,23,12,17,19.50
2015,06,23,12,18,19.60
2015,06,23,12,19,19.60
2015,06,23,12,20,19.70
2015,06,23,12,21,19.70
2015,06,23,12,22,19.60
2015,06,23,12,23,19.60
2015,06,23,12,24,19.60
2015,06,23,12,25,19.50
2015,06,23,12,26,19.60
2015,06,23,12,27,19.70
2015,06,23,12,28,19.70
2015,06,23,12,29,19.70
2015,06,23,12,30,19.70
2015,06,23,12,31,19.70
2015,06,23,12,32,19.70
2015,06,23,12,33,19.80
2015,06,23,12,34,19.90
2015,06,23,12,35,20.00
2015,06,23,12,36,20.00
2015,06,23,12,37,20.10
2015,06,23,12,38,20.10
2015,06,23,12,39,20.00
2015,06,23,12,40,19.90
2015,06,23,12,41,19.90
2015,06,23,12,42,19.90
2015,06,23,12,43,19.90
2015,06,23,12,44,19.80
2015,06,23,12,45,19.80
2015,06,23,12,46,19.80
2015,06,23,12,47,19.80
2015,06,23,12,48,19.80
2015,06,23,12,49,19.80
2015,06,23,12,50,19.70
2015,06,23,12,51,19.80
2015,06,23,12,52,19.80
2015,06,23,12,53,19.80
2015,06,23,12,54,19.80
2015,06,23,12,55,19.80
2015,06,23,12,56,19.90
2015,06,23,12,57,20.00
2015,06,23,12,58,20.00
2015,06,23,12,59,20.10
2015,06,23,13,00,20.10
2015,06,23,13,01,20.00
2015,06,23,13,02,20.00
2015,06,23,13,03,20.00
2015,06,23,13,04,20.00
2015,06,23,13,05,20.10
2015,06,23,13,06,20.10
2015,06,23,13,07,20.20
2015,06,23,13,08,20.20
2015,06,23,13,09,20.30
2015,06,23,13,10,20.20
2015,06,23,13,11,20.20
2015,06,23,13,12,20.20
2015,06,23,13,13,20.20
2015,06,23,13,14,20.20
2015,06,23,13,15,20.20
2015,06,23,13,16,20.40
2015,06,23,13,17,20.40
2015,06,23,13,18,20.40
2015,06,23,13,19,20.40
2015,06,23,13,20,20.40
2015,06,23,13,21,20.40
2015,06,23,13,22,20.30
2015,06,23,13,23,20.20
2015,06,23,13,24,20.20
2015,06,23,13,25,20.20
2015,06,23,13,26,20.30
2015,06,23,13,27,20.30
2015,06,23,13,28,20.30
2015,06,23,13,29,20.30
2015,06,23,13,30,20.40
2015,06,23,13,31,20.40
2015,06,23,13,32,20.40
2015,06,23,13,33,20.50
2015,06,23,13,34,20.60
2015,06,23,13,35,20.50
2015,06,23,13,36,20.50
2015,06,23,13,37,20.60
2015,06,23,13,38,20.60
2015,06,23,13,39,20.60
2015,06,23,13,40,20.60
2015,06,23,13,41,20.60
2015,06,23,13,42,20.50
2015,06,23,13,43,20.40
2015,06,23,13,44,20.30
2015,06,23,13,45,20.20
2015,06,23,13,46,20.10
2015,06,23,13,47,20.10
2015,06,23,13,48,20.10
2015,06,23,13,49,20.10
2015,06,23,13,50,20.20
2015,06,23,13,51,20.30
2015,06,23,13,52,20.30
2015,06,23,13,53,20.30
2015,06,23,13,54,20.30
2015,06,23,13,55,20.30
2015,06,23,13,56,20.40
2015,06,23,13,57,20.50
2015,06,23,13,58,20.50
2015,06,23,13,59,20.60
2015,06,23,14,00,20.60
2015,06,23,14,01,20.60
2015,06,23,14,02,20.50
2015,06,23,14,03,20.30
2015,06,23,14,04,20.10
2015,06,23,14,05,20.00
2015,06,23,14,06,19.90
2015,06,23,14,07,19.80
2015,06,23,14,08,19.90
2015,06,23,14,09,20.00
2015,06,23,14,10,20.20
2015,06,23,14,11,20.30
2015,06,23,14,12,20.40
2015,06,23,14,13,20.40
2015,06,23,14,14,20.30
2015,06,23,14,15,20.30
2015,06,23,14,16,20.30
2015,06,23,14,17,20.20
2015,06,23,14,18,20.10
2015,06,23,14,19,20.10
2015,06,23,14,20,20.10
2015,06,23,14,21,20.00
2015,06,23,14,22,20.00
2015,06,23,14,23,20.10
2015,06,23,14,24,20.10
2015,06,23,14,25,20.10
2015,06,23,14,26,19.90
2015,06,23,14,27,19.80
2015,06,23,14,28,19.80
2015,06,23,14,29,19.80
2015,06,23,14,30,19.80
2015,06,23,14,31,19.70
2015,06,23,14,32,19.70
2015,06,23,14,33,19.70
2015,06,23,14,34,19.80
2015,06,23,14,35,19.80
2015,06,23,14,36,19.80
2015,06,23,14,37,19.80
2015,06,23,14,38,19.80
2015,06,23,14,39,19.80
2015,06,23,14,40,19.80
2015,06,23,14,41,19.80
2015,06,23,14,42,19.90
2015,06,23,14,43,19.90
2015,06,23,14,44,20.00
2015,06,23,14,45,20.10
2015,06,23,14,46,20.20
2015,06,23,14,47,20.10
2015,06,23,14,48,20.20
2015,06,23,14,49,20.30
2015,06,23,14,50,20.30
2015,06,23,14,51,20.30
2015,06,23,14,52,20.30
2015,06,23,14,53,20.40
2015,06,23,14,54,20.40
2015,06,23,14,55,20.40
2015,06,23,14,56,20.50
2015,06,23,14,57,20.60
2015,06,23,14,58,20.70
2015,06,23,14,59,20.80
2015,06,23,15,00,20.90
2015,06,23,15,01,21.00
2015,06,23,15,02,21.00
2015,06,23,15,03,20.90
2015,06,23,15,04,20.80
2015,06,23,15,05,20.70
2015,06,23,15,06,20.60
2015,06,23,15,07,20.60
2015,06,23,15,08,20.70
2015,06,23,15,09,20.90
2015,06,23,15,10,21.00
2015,06,23,15,11,21.10
2015,06,23,15,12,21.20
2015,06,23,15,13,21.30
2015,06,23,15,14,21.30
2015,06,23,15,15,21.30
2015,06,23,15,16,21.30
2015,06,23,15,17,21.20
2015,06,23,15,18,21.10
2015,06,23,15,19,21.00
2015,06,23,15,20,20.90
2015,06,23,15,21,20.90
2015,06,23,15,22,20.90
2015,06,23,15,23,20.80
2015,06,23,15,24,20.70
2015,06,23,15,25,20.70
2015,06,23,15,26,20.70
2015,06,23,15,27,20.70
2015,06,23,15,28,20.70
2015,06,23,15,29,20.70
2015,06,23,15,30,20.70
2015,06,23,15,31,20.70
2015,06,23,15,32,20.80
2015,06,23,15,33,20.80
2015,06,23,15,34,20.80
2015,06,23,15,35,20.80
2015,06,23,15,36,20.70
2015,06,23,15,37,20.70
2015,06,23,15,38,20.70
2015,06,23,15,39,20.70
2015,06,23,15,40,20.80
2015,06,23,15,41,20.80
2015,06,23,15,42,20.90
2015,06,23,15,43,20.90
2015,06,23,15,44,20.90
2015,06,23,15,45,21.00
2015,06,23,15,46,21.10
2015,06,23,15,47,21.10
2015,06,23,15,48,21.10
2015,06,23,15,49,21.10
2015,06,23,15,50,21.10
2015,06,23,15,51,21.10
2015,06,23,15,52,21.00
2015,06,23,15,53,20.90
2015,06,23,15,54,20.90
2015,06,23,15,55,20.80
2015,06,23,15,56,20.80
2015,06,23,15,57,20.80
2015,06,23,15,58,20.70
2015,06,23,15,59,20.70
2015,06,23,16,00,20.70
2015,06,23,16,01,20.70
2015,06,23,16,02,20.60
2015,06,23,16,03,20.70
2015,06,23,16,04,20.70
2015,06,23,16,05,20.70
2015,06,23,16,06,20.80
2015,06,23,16,07,20.80
2015,06,23,16,08,20.70
2015,06,23,16,09,20.60
2015,06,23,16,10,20.70
2015,06,23,16,11,20.70
2015,06,23,16,12,20.70
2015,06,23,16,13,20.70
2015,06,23,16,14,20.70
2015,06,23,16,15,20.60
2015,06,23,16,16,20.50
2015,06,23,16,17,20.40
2015,06,23,16,18,20.40
2015,06,23,16,19,20.40
2015,06,23,16,20,20.40
2015,06,23,16,21,20.30
2015,06,23,16,22,20.30
2015,06,23,16,23,20.40
2015,06,23,16,24,20.50
2015,06,23,16,25,20.60
2015,06,23,16,26,20.70
2015,06,23,16,27,20.70
2015,06,23,16,28,20.80
2015,06,23,16,29,20.80
2015,06,23,16,30,20.80
2015,06,23,16,31,20.70
2015,06,23,16,32,20.70
2015,06,23,16,33,20.70
2015,06,23,16,34,20.60
2015,06,23,16,35,20.70
2015,06,23,16,36,20.70
2015,06,23,16,37,20.70
2015,06,23,16,38,20.60
2015,06,23,16,39,20.60
2015,06,23,16,40,20.70
2015,06,23,16,41,20.70
2015,06,23,16,42,20.60
2015,06,23,16,43,20.60
2015,06,23,16,44,20.60
2015,06,23,16,45,20.60
2015,06,23,16,46,20.50
2015,06,23,16,47,20.40
2015,06,23,16,48,20.40
2015,06,23,16,49,20.40
2015,06,23,16,50,20.50
2015,06,23,16,51,20.60
2015,06,23,16,52,20.50
2015,06,23,16,53,20.40
2015,06,23,16,54,20.30
2015,06,23,16,55,20.30
2015,06,23,16,56,20.30
2015,06,23,16,57,20.30
2015,06,23,16,58,20.20
2015,06,23,16,59,20.10
2015,06,23,17,00,20.00
2015,06,23,17,01,19.90
2015,06,23,17,02,19.80
2015,06,23,17,03,19.80
2015,06,23,17,04,19.80
2015,06,23,17,05,19.80
2015,06,23,17,06,19.80
2015,06,23,17,07,19.80
2015,06,23,17,08,19.70
2015,06,23,17,09,19.70
2015,06,23,17,10,19.70
2015,06,23,17,11,19.70
2015,06,23,17,12,19.60
2015,06,23,17,13,19.60
2015,06,23,17,14,19.60
2015,06,23,17,15,19.60
2015,06,23,17,16,19.50
2015,06,23,17,17,19.50
2015,06,23,17,18,19.40
2015,06,23,17,19,19.40
2015,06,23,17,20,19.30
2015,06,23,17,21,19.30